Location: Castelbiague
(43.0361°N, 0.9246°E)
Time: 07:54:16
(UTC+00:00)

Uribyol 2 - Pass Details

Date: 06 February 2022
Orbit: 781 x 797 km, 98.9° (Epoch: 22 May)

Event Time Altitude Azimuth Distance (km) Brightness Sun altitude
Rises 05:53:38 0° 37° (NE) 3,293 ? -13.6°
Reaches altitude 10° 05:58:09 10° 74° (ENE) 2,360 ? -12.8°
Maximum altitude 05:59:25 11° 88° (E) 2,302 ? -12.5°
Drops below altitude 10° 06:00:41 10° 102° (ESE) 2,359 ? -12.3°
Sets 06:05:10 0° 139° (SE) 3,284 ? -11.5°
